Location: Czekan�w
(50.3488°N, 18.7344°E)
Time: 17:18:13
(UTC+00:00)

Envisat - Pass Details

Date: 17 February 2020
Orbit: 764 x 766 km, 98.1° (Epoch: 01 April)

Event Time Altitude Azimuth Distance (km) Brightness Sun altitude
Rises 05:15:16 0° 16° (NNE) 3,247 6.3 -6.8°
Reaches altitude 10° 05:17:37 10° 20° (NNE) 2,316 5.6 -6.4°
Maximum altitude 05:22:40 61° 101° (E) 872 3.7 -5.6°
Drops below altitude 10° 05:27:41 10° 182° (S) 2,297 5.6 -4.9°
Sets 05:30:00 0° 186° (S) 3,219 6.3 -4.5°
